| time (UTC) | temp F | wind direction | speed MPH | gust MPH | rain 1hr in | rain 24hr in | rain mn in | humidity % | barometer mb |
| 20260509014529 | 58 | 0 | 0.0 | 0.0 | 0.00 | 0.07 | 0.07 | 85 | 1008.2 |
| 20260509013029 | 60 | 0 | 0.0 | 0.0 | 0.00 | 0.07 | 0.07 | 83 | 1008.1 |
| 20260509011531 | 61 | 0 | 0.0 | 0.0 | 0.00 | 0.07 | 0.07 | 83 | 1008.0 |
| 20260509010045 | 63 | 0 | 0.0 | 0.0 | 0.00 | 0.07 | 0.07 | 80 | 1008.0 |
| 20260509004531 | 64 | 0 | 0.0 | 0.0 | 0.00 | 0.07 | 0.07 | 79 | 1007.9 |
| 20260509003028 | 64 | 0 | 0.0 | 2.0 | 0.00 | 0.07 | 0.07 | 79 | 1007.6 |
| 20260509001528 | 65 | 0 | 0.0 | 1.0 | 0.00 | 0.07 | 0.07 | 79 | 1007.6 |
| 20260509000028 | 64 | 0 | 0.0 | 0.0 | 0.00 | 0.07 | 0.07 | 80 | 1007.2 |
| 20260508234535 | 64 | 0 | 1.0 | 4.0 | 0.00 | 0.07 | 0.07 | 78 | 1007.3 |
| 20260508233029 | 65 | 0 | 0.0 | 7.0 | 0.00 | 0.07 | 0.07 | 78 | 1007.8 |
| 20260508231528 | 65 | 30 | 0.0 | 3.0 | 0.00 | 0.07 | 0.07 | 80 | 1007.8 |
| 20260508230038 | 64 | 0 | 0.0 | 2.0 | 0.00 | 0.07 | 0.07 | 83 | 1007.7 |
| 20260508224535 | 63 | 0 | 0.0 | 4.0 | 0.00 | 0.07 | 0.07 | 85 | 1007.4 |
| 20260508223027 | 62 | 293 | 2.0 | 7.0 | 0.02 | 0.07 | 0.07 | 88 | 1007.3 |
| 20260508221542 | 61 | 242 | 2.0 | 7.0 | 0.04 | 0.07 | 0.07 | 91 | 1007.0 |
| 20260508220033 | 60 | 234 | 1.0 | 7.0 | 0.05 | 0.07 | 0.07 | 90 | 1007.0 |
| 20260508214528 | 60 | 226 | 1.0 | 5.0 | 0.06 | 0.07 | 0.07 | 89 | 1008.0 |
| 20260508213029 | 60 | 0 | 0.0 | 2.0 | 0.04 | 0.04 | 0.04 | 87 | 1008.8 |
| 20260508211530 | 61 | 0 | 0.0 | 2.0 | 0.03 | 0.03 | 0.03 | 86 | 1009.0 |
| 20260508210030 | 62 | 0 | 0.0 | 4.0 | 0.02 | 0.02 | 0.02 | 85 | 1009.1 |
| 20260508204533 | 62 | 0 | 0.0 | 4.0 | 0.01 | 0.01 | 0.01 | 82 | 1009.1 |
| 20260508203032 | 63 | 0 | 0.0 | 1.0 | 0.00 | 0.00 | 0.00 | 79 | 1009.6 |
| 20260508201531 | 64 | 0 | 0.0 | 6.0 | 0.00 | 0.00 | 0.00 | 76 | 1009.2 |
| 20260508200031 | 66 | 0 | 0.0 | 5.0 | 0.00 | 0.00 | 0.00 | 75 | 1009.0 |
| 20260508194546 | 65 | 0 | 0.0 | 0.0 | 0.00 | 0.00 | 0.00 | 69 | 1009.2 |
| 20260508193029 | 65 | 0 | 0.0 | 4.0 | 0.00 | 0.00 | 0.00 | 69 | 1009.1 |
| 20260508191532 | 64 | 258 | 0.0 | 3.0 | 0.00 | 0.00 | 0.00 | 70 | 1009.1 |
| 20260508190040 | 64 | 0 | 0.0 | 4.0 | 0.00 | 0.00 | 0.00 | 71 | 1008.7 |
| 20260508184536 | 64 | 227 | 2.0 | 6.0 | 0.00 | 0.00 | 0.00 | 71 | 1009.4 |
| 20260508183032 | 64 | 0 | 0.0 | 2.0 | 0.00 | 0.00 | 0.00 | 70 | 1008.7 |
| 20260508181531 | 64 | 0 | 0.0 | 3.0 | 0.00 | 0.00 | 0.00 | 69 | 1008.8 |
| 20260508180030 | 63 | 0 | 2.0 | 9.0 | 0.00 | 0.00 | 0.00 | 69 | 1009.5 |
| 20260508174538 | 64 | 200 | 1.0 | 8.0 | 0.00 | 0.00 | 0.00 | 69 | 1009.4 |
| 20260508173030 | 63 | 259 | 2.0 | 5.0 | 0.00 | 0.00 | 0.00 | 70 | 1009.5 |
| 20260508171532 | 63 | 0 | 0.0 | 1.0 | 0.00 | 0.00 | 0.00 | 70 | 1009.4 |
| 20260508170032 | 62 | 0 | 0.0 | 3.0 | 0.00 | 0.00 | 0.00 | 71 | 1009.2 |
| 20260508164536 | 62 | 0 | 1.0 | 4.0 | 0.00 | 0.00 | 0.00 | 72 | 1009.4 |
| 20260508163032 | 61 | 310 | 2.0 | 7.0 | 0.00 | 0.00 | 0.00 | 71 | 1010.7 |
| 20260508161531 | 61 | 237 | 3.0 | 8.0 | 0.00 | 0.00 | 0.00 | 70 | 1010.2 |
| 20260508160032 | 61 | 275 | 2.0 | 8.0 | 0.00 | 0.00 | 0.00 | 71 | 1009.8 |
| 20260508154532 | 61 | 237 | 5.0 | 9.0 | 0.00 | 0.00 | 0.00 | 72 | 1009.6 |
| 20260508153033 | 60 | 225 | 3.0 | 9.0 | 0.00 | 0.00 | 0.00 | 73 | 1009.5 |
| 20260508151532 | 59 | 237 | 3.0 | 8.0 | 0.00 | 0.00 | 0.00 | 74 | 1009.7 |
| 20260508150039 | 59 | 235 | 3.0 | 9.0 | 0.00 | 0.00 | 0.00 | 73 | 1009.9 |
| 20260508144529 | 59 | 219 | 3.0 | 6.0 | 0.00 | 0.00 | 0.00 | 72 | 1010.1 |
| 20260508143030 | 59 | 239 | 2.0 | 5.0 | 0.00 | 0.00 | 0.00 | 71 | 1010.3 |
| 20260508141528 | 59 | 296 | 1.0 | 4.0 | 0.00 | 0.00 | 0.00 | 71 | 1010.4 |
| 20260508140030 | 58 | 277 | 1.0 | 5.0 | 0.00 | 0.00 | 0.00 | 72 | 1010.2 |
| 20260508134535 | 58 | 235 | 3.0 | 7.0 | 0.00 | 0.00 | 0.00 | 72 | 1009.8 |
| 20260508133034 | 58 | 193 | 2.0 | 8.0 | 0.00 | 0.00 | 0.00 | 73 | 1009.7 |
| 20260508131529 | 57 | 220 | 3.0 | 6.0 | 0.00 | 0.00 | 0.00 | 73 | 1009.7 |
| 20260508130028 | 57 | 229 | 1.0 | 4.0 | 0.00 | 0.00 | 0.00 | 72 | 1009.6 |
| 20260508124528 | 57 | 261 | 2.0 | 7.0 | 0.00 | 0.00 | 0.00 | 73 | 1009.8 |
| 20260508123032 | 57 | 246 | 1.0 | 3.0 | 0.00 | 0.00 | 0.00 | 73 | 1009.8 |
| 20260508121530 | 57 | 244 | 0.0 | 2.0 | 0.00 | 0.00 | 0.00 | 72 | 1009.7 |
| 20260508120029 | 57 | 228 | 1.0 | 4.0 | 0.00 | 0.00 | 0.00 | 70 | 1009.4 |
| 20260508114531 | 57 | 0 | 0.0 | 8.0 | 0.00 | 0.00 | 0.00 | 69 | 1009.6 |
| 20260508113031 | 57 | 259 | 4.0 | 8.0 | 0.00 | 0.00 | 0.00 | 69 | 1009.0 |
| 20260508111532 | 57 | 236 | 3.0 | 8.0 | 0.00 | 0.00 | 0.00 | 70 | 1008.8 |
| 20260508110033 | 57 | 254 | 2.0 | 8.0 | 0.00 | 0.00 | 0.00 | 69 | 1009.1 |
| 20260508104554 | 57 | 242 | 3.0 | 8.0 | 0.00 | 0.00 | 0.00 | 69 | 1008.9 |
| 20260508103042 | 57 | 251 | 3.0 | 11.0 | 0.00 | 0.00 | 0.00 | 69 | 1009.0 |
| 20260508101531 | 57 | 246 | 4.0 | 9.0 | 0.00 | 0.00 | 0.00 | 69 | 1008.9 |
| 20260508100033 | 57 | 254 | 2.0 | 8.0 | 0.00 | 0.00 | 0.00 | 69 | 1008.8 |
| 20260508094528 | 57 | 216 | 4.0 | 9.0 | 0.00 | 0.00 | 0.00 | 69 | 1008.8 |
| 20260508093030 | 57 | 238 | 3.0 | 8.0 | 0.00 | 0.00 | 0.00 | 70 | 1008.8 |
| 20260508091529 | 56 | 264 | 2.0 | 7.0 | 0.00 | 0.00 | 0.00 | 71 | 1008.8 |
| 20260508090031 | 56 | 230 | 2.0 | 7.0 | 0.00 | 0.00 | 0.00 | 72 | 1008.8 |
| 20260508084531 | 55 | 214 | 3.0 | 8.0 | 0.00 | 0.00 | 0.00 | 73 | 1008.8 |
| 20260508083028 | 55 | 244 | 3.0 | 8.0 | 0.00 | 0.00 | 0.00 | 73 | 1008.9 |
| 20260508081530 | 55 | 232 | 3.0 | 8.0 | 0.00 | 0.00 | 0.00 | 73 | 1009.0 |
| 20260508080030 | 55 | 238 | 2.0 | 8.0 | 0.00 | 0.00 | 0.00 | 73 | 1009.3 |
| 20260508074533 | 56 | 219 | 3.0 | 8.0 | 0.00 | 0.00 | 0.00 | 71 | 1009.5 |
| 20260508073032 | 56 | 237 | 4.0 | 7.0 | 0.00 | 0.00 | 0.00 | 70 | 1009.6 |
| 20260508071529 | 56 | 244 | 4.0 | 9.0 | 0.00 | 0.00 | 0.00 | 69 | 1009.8 |
| 20260508070043 | 57 | 206 | 3.0 | 8.0 | 0.00 | 0.00 | 0.00 | 69 | 1009.9 |
| 20260508064537 | 57 | 266 | 4.0 | 9.0 | 0.00 | 0.00 | 0.00 | 68 | 1010.1 |
| 20260508063032 | 57 | 232 | 4.0 | 10.0 | 0.00 | 0.00 | 0.00 | 67 | 1010.4 |
| 20260508061532 | 57 | 233 | 4.0 | 9.0 | 0.00 | 0.00 | 0.00 | 67 | 1010.6 |
| 20260508060034 | 57 | 221 | 4.0 | 9.0 | 0.00 | 0.00 | 0.00 | 67 | 1010.7 |
| 20260508054532 | 58 | 202 | 4.0 | 10.0 | 0.00 | 0.00 | 0.00 | 66 | 1010.7 |
| 20260508053030 | 58 | 233 | 3.0 | 8.0 | 0.00 | 0.00 | 0.00 | 66 | 1010.6 |
| 20260508051530 | 59 | 222 | 3.0 | 9.0 | 0.00 | 0.00 | 0.00 | 64 | 1010.6 |
| 20260508050032 | 60 | 236 | 4.0 | 10.0 | 0.00 | 0.00 | 0.00 | 63 | 1010.7 |
| 20260508044532 | 60 | 218 | 4.0 | 10.0 | 0.00 | 0.00 | 0.00 | 62 | 1010.8 |
| 20260508043050 | 60 | 248 | 5.0 | 10.0 | 0.00 | 0.00 | 0.00 | 61 | 1010.9 |
| 20260508041534 | 60 | 231 | 5.0 | 10.0 | 0.00 | 0.00 | 0.00 | 60 | 1010.9 |
| 20260508040032 | 60 | 225 | 4.0 | 9.0 | 0.00 | 0.00 | 0.00 | 61 | 1010.8 |
| 20260508034530 | 61 | 311 | 4.0 | 11.0 | 0.00 | 0.00 | 0.00 | 60 | 1010.8 |
| 20260508033033 | 61 | 238 | 3.0 | 9.0 | 0.00 | 0.00 | 0.00 | 60 | 1010.7 |
| 20260508031531 | 61 | 221 | 2.0 | 12.0 | 0.00 | 0.00 | 0.00 | 60 | 1010.7 |
| 20260508030042 | 61 | 235 | 3.0 | 8.0 | 0.00 | 0.00 | 0.00 | 60 | 1010.6 |
| 20260508024534 | 62 | 236 | 4.0 | 11.0 | 0.00 | 0.00 | 0.00 | 59 | 1010.4 |
| 20260508023032 | 62 | 217 | 3.0 | 8.0 | 0.00 | 0.00 | 0.00 | 59 | 1010.2 |
| 20260508021533 | 62 | 225 | 2.0 | 8.0 | 0.00 | 0.00 | 0.00 | 58 | 1010.0 |
| 20260508020029 | 62 | 233 | 2.0 | 6.0 | 0.00 | 0.00 | 0.00 | 58 | 1009.9 |